Volver al catálogo

GLOBALSTAR M030

ActivoComunicacionesLEO
NORAD 25854·PAYLOAD·🇺🇸 United States

Lanzado Jul 10, 1999 desde Cape Canaveral Space Force Station

Loading…

Próximos Pases (próximas 24 horas)

TLE

ActualizadoSource: Space-Track

Época: Sep 14, 2026, 03:06 UTC

1 25854U 99037D   26257.12933739 -.00000041  00000-0  72671-3 0  9993
2 25854  51.9861 163.0404 0003728 127.0599 233.0559 11.55117168202509

Sigue GLOBALSTAR M030 en tiempo real con AllMySat

Download on the App Store